GW4982 Weather Reports


time (UTC)temp
C
wind
direction
speed
KPH
gust
KPH
rain 1hr
cm
rain 24hr
cm
rain mn
cm
humidity
%
barometer
mb
20260506224358 19 181 6.4 11.3 0.00 0.00 0.00 67 1016.0
20260506223859 19 174 3.2 6.4 0.00 0.00 0.00 68 1016.0
20260506223358 18 181 4.8 8.0 0.00 0.00 0.00 69 1016.0
20260506222858 18 197 6.4 11.3 0.00 0.00 0.00 69 1016.0
20260506222358 19 171 6.4 8.0 0.00 0.00 0.00 70 1016.0
20260506221858 19 162 6.4 8.0 0.00 0.00 0.00 70 1016.0
20260506221358 19 193 6.4 8.0 0.00 0.00 0.00 70 1016.0
20260506220900 20 201 4.8 8.0 0.00 0.00 0.00 67 1016.0
20260506220359 19 204 4.8 8.0 0.00 0.00 0.00 67 1016.0
20260506215859 19 197 6.4 8.0 0.00 0.00 0.00 68 1017.0
20260506215358 19 190 3.2 4.8 0.00 0.00 0.00 68 1017.0
20260506214859 19 167 6.4 8.0 0.00 0.00 0.00 70 1017.0
20260506214400 19 177 6.4 8.0 0.00 0.00 0.00 70 1017.0
20260506213858 19 203 4.8 6.4 0.00 0.00 0.00 69 1017.0
20260506213358 19 167 6.4 9.7 0.00 0.00 0.00 68 1017.0
20260506212859 19 184 6.4 9.7 0.00 0.00 0.00 68 1017.0
20260506211934 19 183 3.2 6.4 0.00 0.00 0.00 66 1017.0
20260506211358 19 158 6.4 8.0 0.00 0.00 0.00 67 1017.0
20260506210858 19 184 6.4 9.7 0.00 0.00 0.00 67 1017.0
20260506210358 20 185 6.4 8.0 0.00 0.00 0.00 65 1017.0
20260506205859 19 155 4.8 6.4 0.00 0.00 0.00 66 1017.0
20260506205359 19 162 4.8 8.0 0.00 0.00 0.00 66 1017.0
20260506204858 18 176 6.4 6.4 0.00 0.00 0.00 69 1017.0
20260506204400 18 181 6.4 8.0 0.00 0.00 0.00 69 1017.0
20260506203859 18 137 6.4 9.7 0.00 0.00 0.00 68 1017.0
20260506203400 18 177 4.8 8.0 0.00 0.00 0.00 69 1017.0
20260506202900 18 182 6.4 6.4 0.00 0.00 0.00 68 1017.0
20260506202400 18 187 4.8 9.7 0.00 0.00 0.00 71 1017.0
20260506201859 18 160 6.4 9.7 0.00 0.00 0.00 70 1017.0
20260506201359 18 198 6.4 8.0 0.00 0.00 0.00 71 1017.0
20260506200901 18 188 6.4 9.7 0.00 0.00 0.00 69 1017.0
20260506200400 18 168 4.8 8.0 0.00 0.00 0.00 69 1017.0
20260506195858 19 181 6.4 9.7 0.00 0.00 0.00 67 1017.0
20260506195359 19 139 6.4 12.9 0.00 0.00 0.00 65 1017.0
20260506194858 19 167 4.8 6.4 0.00 0.00 0.00 67 1017.0
20260506194358 18 173 4.8 8.0 0.00 0.00 0.00 69 1017.0
20260506193858 18 168 8.0 9.7 0.00 0.00 0.00 68 1017.0
20260506193407 18 175 6.4 8.0 0.00 0.00 0.00 66 1017.0
20260506192858 18 150 4.8 8.0 0.00 0.00 0.00 69 1017.0
20260506192358 18 176 4.8 6.4 0.00 0.00 0.00 70 1018.0
20260506191900 17 158 4.8 8.0 0.00 0.00 0.00 70 1018.0
20260506191359 17 183 6.4 8.0 0.00 0.00 0.00 72 1018.0
20260506190858 18 173 4.8 8.0 0.00 0.00 0.00 69 1018.0
20260506190359 18 160 3.2 6.4 0.00 0.00 0.00 71 1018.0
20260506185858 18 183 8.0 9.7 0.00 0.00 0.00 70 1018.0
20260506185358 18 162 4.8 6.4 0.00 0.00 0.00 69 1018.0
20260506184859 17 186 6.4 9.7 0.00 0.00 0.00 71 1018.0
20260506184358 17 183 6.4 8.0 0.00 0.00 0.00 71 1018.0
20260506183901 18 183 6.4 9.7 0.00 0.00 0.00 71 1018.0
20260506183358 18 177 4.8 9.7 0.00 0.00 0.00 70 1018.0
20260506182859 18 157 8.0 12.9 0.00 0.00 0.00 69 1018.0
20260506182358 18 178 6.4 9.7 0.00 0.00 0.00 69 1018.0
20260506181858 18 185 4.8 6.4 0.00 0.00 0.00 71 1018.0
20260506181359 18 151 4.8 12.9 0.00 0.00 0.00 68 1018.0
20260506180858 18 139 4.8 19.3 0.00 0.00 0.00 69 1018.0
20260506180358 17 176 6.4 8.0 0.00 0.00 0.00 71 1018.0
20260506175858 17 174 4.8 6.4 0.00 0.00 0.00 74 1018.0
20260506175358 17 182 3.2 6.4 0.00 0.00 0.00 74 1018.0
20260506174900 17 170 4.8 6.4 0.00 0.00 0.00 76 1018.0
20260506174358 17 166 4.8 6.4 0.00 0.00 0.00 76 1018.0
20260506173858 17 172 4.8 6.4 0.00 0.00 0.00 75 1018.0
20260506173359 17 169 4.8 6.4 0.00 0.00 0.00 77 1018.0
20260506172859 17 169 3.2 6.4 0.00 0.00 0.00 77 1018.0
20260506172358 16 174 3.2 6.4 0.00 0.00 0.00 78 1018.0
20260506171858 16 175 3.2 6.4 0.00 0.00 0.00 79 1018.0
20260506171358 16 169 6.4 9.7 0.00 0.00 0.00 79 1018.0
20260506170858 16 165 6.4 8.0 0.00 0.00 0.00 79 1018.0
20260506170359 16 174 6.4 8.0 0.00 0.00 0.00 79 1018.0
20260506165858 16 175 4.8 8.0 0.00 0.00 0.00 78 1018.0
20260506165358 16 164 4.8 4.8 0.00 0.00 0.00 78 1018.0
20260506164858 16 156 6.4 6.4 0.00 0.00 0.00 78 1018.0
20260506164359 16 163 4.8 6.4 0.00 0.00 0.00 78 1018.0
20260506163859 16 161 4.8 6.4 0.00 0.00 0.00 78 1018.0
20260506163359 16 167 4.8 8.0 0.00 0.00 0.00 79 1018.0
20260506162859 16 155 4.8 4.8 0.00 0.00 0.00 79 1018.0
20260506162358 16 164 6.4 8.0 0.00 0.00 0.00 79 1018.0
20260506161858 16 160 4.8 4.8 0.00 0.00 0.00 80 1018.0
20260506161359 16 159 3.2 4.8 0.00 0.00 0.00 81 1018.0
20260506160859 15 159 4.8 6.4 0.00 0.00 0.00 83 1018.0
20260506160359 15 163 3.2 4.8 0.00 0.00 0.00 82 1018.0
20260506155900 15 165 4.8 6.4 0.00 0.00 0.00 83 1018.0
20260506155359 15 150 3.2 4.8 0.00 0.00 0.00 85 1018.0
20260506154858 15 162 6.4 6.4 0.00 0.00 0.00 84 1018.0
20260506154359 15 155 6.4 9.7 0.00 0.00 0.00 84 1018.0
20260506153859 15 158 6.4 8.0 0.00 0.00 0.00 85 1018.0
20260506153358 15 158 6.4 6.4 0.00 0.00 0.00 85 1018.0
20260506152858 15 160 6.4 8.0 0.00 0.00 0.00 86 1018.0
20260506152358 14 162 1.6 8.0 0.00 0.00 0.00 85 1018.0
20260506151858 14 0 0.0 0.0 0.00 0.00 0.00 86 1018.0
20260506151358 13 329 1.6 1.6 0.00 0.00 0.00 87 1018.0
20260506150858 13 326 1.6 1.6 0.00 0.00 0.00 89 1018.0
20260506150358 13 326 1.6 1.6 0.00 0.00 0.00 89 1018.0
20260506145900 12 323 1.6 1.6 0.00 0.00 0.00 90 1018.0
20260506145358 12 325 1.6 1.6 0.00 0.00 0.00 91 1018.0
20260506144859 12 320 1.6 1.6 0.00 0.00 0.00 92 1018.0
20260506144359 12 316 1.6 1.6 0.00 0.00 0.00 92 1018.0
20260506143858 11 0 0.0 0.0 0.00 0.00 0.00 92 1018.0
20260506143359 11 0 0.0 0.0 0.00 0.00 0.00 92 1018.0
20260506142858 11 0 0.0 0.0 0.00 0.00 0.00 92 1018.0
20260506142359 11 0 0.0 0.0 0.00 0.00 0.00 93 1018.0
20260506141900 10 0 0.0 0.0 0.00 0.00 0.00 92 1018.0
20260506141403 10 0 0.0 0.0 0.00 0.00 0.00 93 1018.0
20260506140858 10 0 0.0 0.0 0.00 0.00 0.00 93 1018.0
20260506140358 10 0 0.0 0.0 0.00 0.00 0.00 93 1018.0
20260506135859 10 0 0.0 0.0 0.00 0.00 0.00 93 1018.0
20260506135359 10 0 0.0 0.0 0.00 0.00 0.00 93 1018.0
20260506134859 10 0 0.0 0.0 0.00 0.00 0.00 93 1018.0
20260506134358 10 0 0.0 0.0 0.00 0.00 0.00 93 1018.0
20260506133859 10 0 0.0 0.0 0.00 0.00 0.00 93 1017.0
20260506133403 10 0 0.0 0.0 0.00 0.00 0.00 93 1017.0
20260506132858 10 0 0.0 0.0 0.00 0.00 0.00 93 1017.0
20260506132400 10 0 0.0 0.0 0.00 0.00 0.00 93 1017.0
20260506131859 10 0 0.0 0.0 0.00 0.00 0.00 93 1017.0
20260506131359 10 0 0.0 0.0 0.00 0.00 0.00 93 1017.0
20260506130859 10 0 0.0 0.0 0.00 0.00 0.00 92 1017.0
20260506130358 10 0 0.0 0.0 0.00 0.00 0.00 92 1017.0
20260506125859 10 0 0.0 0.0 0.00 0.00 0.00 92 1017.0
20260506125358 10 0 0.0 0.0 0.00 0.00 0.00 92 1017.0
20260506124858 10 0 0.0 0.0 0.00 0.00 0.00 92 1017.0
20260506124359 10 0 0.0 0.0 0.00 0.00 0.00 92 1017.0
20260506123858 10 0 0.0 0.0 0.00 0.00 0.00 92 1017.0
20260506123359 10 0 0.0 0.0 0.00 0.00 0.00 92 1017.0
20260506122858 10 0 0.0 0.0 0.00 0.00 0.00 92 1017.0
20260506122358 10 0 0.0 0.0 0.00 0.00 0.00 93 1017.0
20260506121859 10 0 0.0 0.0 0.00 0.00 0.00 93 1017.0
20260506121358 10 0 0.0 0.0 0.00 0.00 0.00 93 1017.0
20260506120859 10 0 0.0 0.0 0.00 0.00 0.00 92 1017.0
20260506120358 10 0 0.0 0.0 0.00 0.00 0.00 92 1017.0
20260506115858 10 0 0.0 0.0 0.00 0.00 0.00 92 1017.0
20260506115359 10 0 0.0 0.0 0.00 0.00 0.00 92 1017.0
20260506114859 10 0 0.0 0.0 0.00 0.00 0.00 92 1017.0
20260506114359 10 0 0.0 0.0 0.00 0.00 0.00 92 1017.0
20260506113858 10 0 0.0 0.0 0.00 0.00 0.00 92 1017.0
20260506113401 10 0 0.0 0.0 0.00 0.00 0.00 92 1017.0
20260506112859 10 0 0.0 0.0 0.00 0.00 0.00 92 1017.0
20260506112359 10 0 0.0 0.0 0.00 0.00 0.00 92 1017.0
20260506111900 10 0 0.0 0.0 0.00 0.00 0.00 92 1017.0
20260506111359 10 0 0.0 0.0 0.00 0.00 0.00 92 1017.0
20260506110858 10 0 0.0 0.0 0.00 0.00 0.00 92 1017.0
20260506110358 10 0 0.0 0.0 0.00 0.00 0.00 92 1017.0
20260506105858 10 0 0.0 0.0 0.00 0.00 0.00 92 1017.0
20260506105358 10 0 0.0 0.0 0.00 0.00 0.00 92 1017.0
20260506104901 10 0 0.0 0.0 0.00 0.00 0.00 92 1017.0
20260506104358 10 0 0.0 0.0 0.00 0.00 0.00 92 1017.0
20260506103900 10 0 0.0 0.0 0.00 0.00 0.00 92 1017.0
20260506103358 10 0 0.0 0.0 0.00 0.00 0.00 92 1017.0
20260506102900 10 0 0.0 0.0 0.00 0.00 0.00 92 1017.0
20260506102407 10 0 0.0 0.0 0.00 0.00 0.00 92 1017.0
20260506101858 10 0 0.0 0.0 0.00 0.00 0.00 92 1017.0
20260506101359 10 0 0.0 0.0 0.00 0.00 0.00 92 1017.0
20260506100859 10 0 0.0 0.0 0.00 0.00 0.00 92 1017.0
20260506100400 10 0 0.0 0.0 0.00 0.00 0.00 92 1017.0
20260506095859 10 0 0.0 0.0 0.00 0.00 0.00 92 1017.0
20260506095359 10 0 0.0 0.0 0.00 0.00 0.00 92 1017.0
20260506094858 10 0 0.0 0.0 0.00 0.00 0.00 92 1017.0
20260506094358 10 0 0.0 0.0 0.00 0.00 0.00 92 1017.0
20260506093859 10 0 0.0 0.0 0.00 0.00 0.00 92 1017.0
20260506093358 10 327 1.6 1.6 0.00 0.00 0.00 92 1017.0
20260506092858 10 0 0.0 0.0 0.00 0.00 0.00 92 1017.0
20260506092358 10 0 0.0 0.0 0.00 0.00 0.00 92 1017.0
20260506091410 10 0 0.0 0.0 0.00 0.00 0.00 92 1017.0
20260506090859 10 0 0.0 0.0 0.00 0.00 0.00 92 1017.0
20260506090400 10 0 0.0 0.0 0.00 0.00 0.00 92 1017.0
20260506085858 10 0 0.0 0.0 0.00 0.00 0.00 92 1017.0
20260506085358 11 0 0.0 0.0 0.00 0.00 0.00 92 1017.0
20260506084858 11 0 0.0 0.0 0.00 0.00 0.00 92 1017.0
20260506084358 11 0 0.0 0.0 0.00 0.00 0.00 92 1017.0
20260506083859 11 0 0.0 0.0 0.00 0.00 0.00 92 1017.0
20260506083358 11 0 0.0 0.0 0.00 0.00 0.00 92 1017.0
20260506082859 11 0 0.0 0.0 0.00 0.00 0.00 92 1017.0
20260506082359 11 0 0.0 0.0 0.00 0.00 0.00 92 1017.0
20260506081902 11 0 0.0 0.0 0.00 0.00 0.00 92 1017.0
20260506081358 11 0 0.0 0.0 0.00 0.00 0.00 92 1017.0
20260506080859 11 0 0.0 0.0 0.00 0.00 0.00 92 1017.0
20260506080358 11 0 0.0 0.0 0.00 0.00 0.00 92 1017.0
20260506073359 11 0 0.0 0.0 0.00 0.00 0.00 92 1017.0
20260506072900 11 0 0.0 0.0 0.00 0.00 0.00 92 1017.0
20260506072358 11 0 0.0 0.0 0.00 0.00 0.00 92 1017.0
20260506071858 11 0 0.0 0.0 0.00 0.00 0.00 92 1017.0
20260506071358 11 0 0.0 0.0 0.00 0.00 0.00 92 1017.0
20260506070858 11 0 0.0 0.0 0.00 0.00 0.00 92 1017.0
20260506070358 11 0 0.0 0.0 0.00 0.00 0.00 92 1016.0
20260506062359 12 0 0.0 0.0 0.00 0.00 0.00 91 1016.0
20260506061858 12 0 0.0 0.0 0.00 0.00 0.00 91 1016.0
20260506061359 12 0 0.0 0.0 0.00 0.00 0.00 90 1016.0
20260506060858 12 0 0.0 0.0 0.00 0.00 0.00 90 1016.0
20260506060358 12 0 0.0 0.0 0.00 0.00 0.00 90 1016.0
20260506051359 13 0 0.0 0.0 0.00 0.00 0.00 87 1016.0
20260506050858 13 326 1.6 3.2 0.00 0.00 0.00 87 1015.0
20260506050358 13 0 0.0 0.0 0.00 0.00 0.00 86 1015.0
20260506044858 14 0 0.0 0.0 0.00 0.00 0.00 82 1015.0
20260506044358 14 303 1.6 4.8 0.00 0.00 0.00 80 1015.0
20260506043858 14 332 1.6 1.6 0.00 0.00 0.00 79 1015.0
20260506043358 13 275 4.8 11.3 0.00 0.00 0.00 82 1015.0
20260506042859 13 0 0.0 0.0 0.00 0.00 0.00 82 1015.0
20260506042359 13 0 0.0 0.0 0.00 0.00 0.00 83 1015.0
20260506041905 13 0 0.0 0.0 0.00 0.00 0.00 83 1015.0
20260506041358 13 0 0.0 0.0 0.00 0.00 0.00 83 1015.0
20260506040858 13 0 0.0 0.0 0.00 0.00 0.00 84 1015.0
20260506040359 14 0 0.0 0.0 0.00 0.00 0.00 83 1015.0
20260506035858 14 32 0.0 1.6 0.00 0.00 0.00 84 1015.0
20260506035358 14 285 1.6 4.8 0.00 0.00 0.00 83 1014.0
20260506034859 14 0 0.0 0.0 0.00 0.00 0.00 83 1014.0
20260506034358 14 73 0.0 0.0 0.00 0.00 0.00 83 1014.0
20260506033859 14 336 0.0 1.6 0.00 0.00 0.00 84 1014.0
20260506033358 14 0 0.0 0.0 0.00 0.00 0.00 84 1014.0
20260506032858 14 0 0.0 0.0 0.00 0.00 0.00 84 1014.0
20260506032359 14 0 0.0 0.0 0.00 0.00 0.00 84 1014.0
20260506031858 14 336 1.6 3.2 0.00 0.00 0.00 85 1014.0
20260506031358 14 337 0.0 3.2 0.00 0.00 0.00 85 1014.0
20260506030859 15 0 0.0 0.0 0.00 0.00 0.00 84 1014.0
20260506030359 15 322 0.0 1.6 0.00 0.00 0.00 83 1014.0
20260506025858 15 0 0.0 0.0 0.00 0.00 0.00 83 1014.0
20260506025358 15 0 0.0 0.0 0.00 0.00 0.00 82 1013.0
20260506024858 15 342 0.0 3.2 0.00 0.00 0.00 82 1013.0
20260506024358 15 0 0.0 0.0 0.00 0.00 0.00 81 1013.0
20260506023858 15 344 0.0 3.2 0.00 0.00 0.00 80 1013.0
20260506023359 16 0 0.0 0.0 0.00 0.00 0.00 79 1013.0
20260506022858 16 0 0.0 0.0 0.00 0.00 0.00 79 1013.0
20260506022358 16 168 3.2 6.4 0.00 0.00 0.00 78 1013.0
20260506021858 17 183 3.2 4.8 0.00 0.00 0.00 76 1013.0
20260506021358 17 170 1.6 3.2 0.00 0.00 0.00 76 1013.0
20260506020858 17 165 4.8 4.8 0.00 0.00 0.00 76 1013.0
20260506020358 18 168 4.8 6.4 0.00 0.00 0.00 74 1013.0
20260506015858 18 162 3.2 3.2 0.00 0.00 0.00 72 1013.0
20260506015358 19 157 0.0 1.6 0.00 0.00 0.00 71 1013.0
20260506014858 19 0 0.0 0.0 0.00 0.00 0.00 69 1013.0
20260506014359 19 158 3.2 4.8 0.00 0.00 0.00 70 1013.0
20260506013858 19 158 4.8 6.4 0.00 0.00 0.00 69 1013.0
20260506013358 20 166 4.8 4.8 0.00 0.00 0.00 65 1013.0
20260506012858 19 155 1.6 3.2 0.00 0.00 0.00 67 1013.0
20260506012400 19 167 3.2 6.4 0.00 0.00 0.00 68 1013.0
20260506011858 18 157 1.6 3.2 0.00 0.00 0.00 69 1013.0
20260506011358 18 137 1.6 3.2 0.00 0.00 0.00 70 1013.0
20260506010858 18 166 3.2 4.8 0.00 0.00 0.00 70 1013.0
20260506010358 18 143 1.6 3.2 0.00 0.00 0.00 70 1013.0
20260506005858 18 150 1.6 3.2 0.00 0.00 0.00 70 1013.0
20260506005358 18 160 4.8 6.4 0.00 0.00 0.00 70 1013.0
20260506004859 18 126 1.6 4.8 0.00 0.00 0.00 70 1013.0
20260506004358 18 160 3.2 3.2 0.00 0.00 0.00 70 1013.0
20260506003858 19 174 4.8 6.4 0.00 0.00 0.00 68 1013.0
20260506003358 19 146 3.2 3.2 0.00 0.00 0.00 68 1013.0
20260506002859 19 153 3.2 4.8 0.00 0.00 0.00 67 1013.0
20260506002359 19 155 4.8 8.0 0.00 0.00 0.00 67 1013.0
20260506001858 19 178 4.8 8.0 0.00 0.00 0.00 67 1013.0
20260506001358 18 133 4.8 8.0 0.00 0.00 0.00 68 1013.0
20260506000858 18 123 4.8 6.4 0.00 0.00 0.00 69 1013.0
20260506000358 18 123 4.8 9.7 0.00 0.00 0.00 69 1013.0
20260505235859 18 128 3.2 8.0 0.00 0.00 0.00 69 1013.0
20260505235358 18 150 3.2 6.4 0.00 0.00 0.00 70 1013.0
20260505234858 18 124 6.4 11.3 0.00 0.00 0.00 70 1013.0
20260505234402 18 155 4.8 6.4 0.00 0.00 0.00 69 1013.0
20260505233859 18 158 3.2 4.8 0.00 0.00 0.00 69 1013.0
20260505233400 19 155 3.2 4.8 0.00 0.00 0.00 68 1012.0
20260505232858 19 159 4.8 6.4 0.00 0.00 0.00 68 1013.0
20260505232358 18 127 4.8 9.7 0.00 0.00 0.00 68 1012.0
20260505231859 18 129 6.4 9.7 0.00 0.00 0.00 68 1012.0
20260505231358 19 123 8.0 11.3 0.00 0.00 0.00 68 1013.0
20260505230858 19 130 6.4 8.0 0.00 0.00 0.00 67 1013.0
20260505230400 20 132 4.8 8.0 0.00 0.00 0.00 65 1013.0
20260505225858 20 171 3.2 4.8 0.00 0.00 0.00 66 1013.0
20260505225359 20 168 4.8 4.8 0.00 0.00 0.00 65 1013.0
20260505224858 20 159 4.8 6.4 0.00 0.00 0.00 64 1013.0